Powrót do katalogu

STARLINK-36607

AktywnyŁącznośćVLEO
NORAD 67620·PAYLOAD·🇺🇸 United States

Wystrzelony Jan 30, 2026 z Cape Canaveral Space Force Station

Loading…

Następne Przeloty (najbliższe 24 godziny)

TLE

ŚwieżeSource: CelesTrak SupGP

Epoka: Sep 14, 2026, 15:26 UTC

1 67620C 26020D   26257.64354167  .00044691  00000+0  16188-2 0  2575
2 67620  43.0020 152.3201 0001347 263.0407 167.6517 15.27554691    12

Śledź STARLINK-36607 w czasie rzeczywistym z AllMySat

Download on the App Store